Location: Wapato
(46.4478°N, 120.4212°W)
Time: 10:06:35
(UTC+00:00)

Injun/Solrad 3 - Pass Details

Date: 17 May 2026
Orbit: 867 x 989 km, 66.8° (Epoch: 10 June)

Event Time Altitude Azimuth Distance (km) Brightness Sun altitude
Rises 00:21:22 0° 235° (SW) 3,527 11.8 30.4°
Reaches altitude 10° 00:23:58 10° 242° (WSW) 2,607 11.5 29.9°
Maximum altitude 00:29:44 43° 314° (NW) 1,294 9.7 28.9°
Drops below altitude 10° 00:35:43 10° 25° (NNE) 2,701 10.2 27.9°
Sets 00:38:28 0° 32° (NNE) 3,667 10.7 27.4°
